This demonstration page uses our WeatherBlox Daily Observations layout. Learn more.

Left ArrowRight Arrow

Hourly Observations for November 28, 2021

Temp ( °F °C ) Dew Point ( °F °C ) Humidity (%) Winds ( mph kmh ) Pressure ( in mb ) Visibility ( mi km ) Precip ( " mm )
12:15 am 00:15 Cloudy 41 5 27 -3 57 57 SSE 6 9 29.94 1014 10 16 N/A
12:35 am 00:35 Cloudy 41 5 27 -3 57 57 N N/A 29.94 1014 10 16 N/A
12:55 am 00:55 Cloudy 41 5 27 -3 57 57 SE 3 6 29.92 1013 10 16 N/A
1:15 am 01:15 Cloudy 41 5 27 -3 57 57 SE 3 6 29.93 1014 10 16 N/A
1:35 am 01:35 Cloudy 41 5 27 -3 57 57 N N/A 29.92 1013 10 16 N/A
1:55 am 01:55 Cloudy 41 5 28 -2 61 61 N N/A 29.90 1013 10 16 N/A
2:15 am 02:15 Cloudy 39 4 30 -1 70 70 N N/A 29.92 1013 10 16 N/A
2:35 am 02:35 Cloudy 39 4 30 -1 70 70 NNE 5 7 29.92 1013 10 16 N/A
2:55 am 02:55 Cloudy 39 4 30 -1 70 70 NNE 3 6 29.93 1013 10 16 N/A
3:15 am 03:15 Cloudy 39 4 28 -2 65 65 N N/A 29.92 1013 10 16 N/A
3:35 am 03:35 Cloudy 39 4 30 -1 70 70 N N/A 29.91 1013 10 16 N/A
3:55 am 03:55 Cloudy 39 4 30 -1 70 70 N N/A 29.90 1012 10 16 N/A
4:15 am 04:15 Partly Cloudy 36 2 30 -1 81 81 N N/A 29.90 1012 10 16 N/A
4:35 am 04:35 Partly Cloudy 36 2 30 -1 81 81 N N/A 29.90 1012 10 16 N/A
4:55 am 04:55 Mostly Cloudy 36 2 30 -1 81 81 N N/A 29.89 1012 10 16 N/A
5:15 am 05:15 Partly Cloudy 34 1 30 -1 87 87 N N/A 29.89 1012 10 16 N/A
5:35 am 05:35 Clear 34 1 30 -1 87 87 N N/A 29.88 1012 10 16 N/A
5:55 am 05:55 Partly Cloudy 34 1 30 -1 87 87 N N/A 29.89 1012 10 16 N/A
6:15 am 06:15 Partly Cloudy 32 undefined 30 -1 93 93 N N/A 29.88 1012 10 16 N/A
6:35 am 06:35 Clear 32 undefined 30 -1 93 93 N N/A 29.88 1012 10 16 N/A
6:55 am 06:55 Clear 32 undefined 30 -1 93 93 N N/A 29.89 1012 10 16 N/A
7:35 am 07:35 Sunny 30 -1 28 -2 93 93 WSW 3 6 29.88 1012 10 16 N/A
7:55 am 07:55 Sunny 32 undefined 28 -2 87 87 N N/A 29.88 1012 10 16 N/A
8:15 am 08:15 Sunny 34 1 30 -1 87 87 N N/A 29.89 1012 10 16 N/A
8:35 am 08:35 Sunny 36 2 30 -1 81 81 N N/A 29.89 1012 10 16 N/A
9:15 am 09:15 Mostly Cloudy 41 5 30 -1 66 66 N N/A 29.87 1012 10 16 N/A
9:35 am 09:35 Mostly Cloudy 43 6 30 -1 61 61 N N/A 29.88 1012 10 16 N/A
9:55 am 09:55 Mostly Cloudy 45 7 30 -1 57 57 SSW 3 6 29.87 1012 10 16 N/A
10:15 am 10:15 Partly Cloudy 45 7 30 -1 57 57 N N/A 29.87 1012 10 16 N/A
10:35 am 10:35 Sunny 46 8 30 -1 53 53 N N/A 29.87 1011 10 16 N/A
10:55 am 10:55 Mostly Cloudy 46 8 30 -1 53 53 N N/A 29.86 1011 10 16 N/A
11:15 am 11:15 Mostly Cloudy 50 10 32 undefined 50 50 S 3 6 29.86 1011 10 16 N/A
11:35 am 11:35 Cloudy 52 11 32 undefined 47 47 S 5 7 29.84 1011 10 16 N/A
11:55 am 11:55 Cloudy 54 12 32 undefined 44 44 N N/A 29.83 1010 10 16 N/A
12:15 pm 12:15 Cloudy 54 12 32 undefined 44 44 SSE 3 6 29.82 1010 10 16 N/A
12:35 pm 12:35 Cloudy 52 11 32 undefined 47 47 ESE 3 6 29.82 1010 10 16 N/A
12:55 pm 12:55 Cloudy 54 12 32 undefined 44 44 N N/A 29.81 1010 10 16 N/A
1:15 pm 13:15 Cloudy 55 13 34 1 44 44 N N/A 29.80 1009 10 16 N/A
1:35 pm 13:35 Partly Cloudy 55 13 34 1 44 44 N N/A 29.80 1009 10 16 N/A
1:55 pm 13:55 Sunny 55 13 34 1 44 44 NNW 3 6 29.79 1009 10 16 N/A
2:15 pm 14:15 Partly Cloudy 55 13 34 1 44 44 N 3 6 29.79 1009 10 16 N/A
2:35 pm 14:35 Sunny 57 14 34 1 41 41 NW 6 9 29.78 1008 10 16 N/A
2:55 pm 14:55 Sunny 55 13 34 1 44 44 NW 5 7 29.79 1009 10 16 N/A
3:15 pm 15:15 Partly Cloudy 55 13 34 1 44 44 N 3 6 29.79 1009 10 16 N/A
3:35 pm 15:35 Mostly Cloudy 54 12 34 1 47 47 N 5 7 29.79 1009 10 16 N/A
3:55 pm 15:55 Cloudy 54 12 36 2 51 51 N 8 13 29.79 1009 10 16 N/A
4:15 pm 16:15 Cloudy 52 11 36 2 54 54 NNE 9 15 29.80 1009 10 16 N/A
4:55 pm 16:55 Cloudy 52 11 36 2 54 54 NNE 5 7 29.81 1010 10 16 N/A
5:15 pm 17:15 Mostly Cloudy 50 10 36 2 58 58 NNE 6 9 29.83 1010 10 16 N/A
5:35 pm 17:35 Mostly Cloudy 50 10 36 2 58 58 NE 6 9 29.84 1010 10 16 N/A
5:55 pm 17:55 Mostly Cloudy 48 9 36 2 62 62 NNE 6 9 29.84 1010 10 16 N/A
6:15 pm 18:15 Mostly Cloudy 48 9 36 2 62 62 NNE 6 9 29.85 1011 10 16 N/A
6:35 pm 18:35 Partly Cloudy 46 8 34 1 62 62 NNE 7 11 29.85 1011 10 16 N/A
6:55 pm 18:55 Clear 46 8 34 1 62 62 NNE 5 7 29.86 1011 10 16 N/A
7:15 pm 19:15 Clear 43 6 34 1 71 71 N 5 7 29.87 1012 10 16 N/A
7:35 pm 19:35 Clear 45 7 34 1 66 66 NNE 5 7 29.87 1012 10 16 N/A
7:55 pm 19:55 Clear 43 6 34 1 71 71 N N/A 29.88 1012 10 16 N/A
8:15 pm 20:15 Clear 43 6 34 1 71 71 NE 3 6 29.88 1012 10 16 N/A
8:35 pm 20:35 Partly Cloudy 43 6 34 1 71 71 N 5 7 29.88 1012 10 16 N/A
8:55 pm 20:55 Cloudy 43 6 34 1 71 71 N 6 9 29.88 1012 10 16 N/A
9:15 pm 21:15 Mostly Cloudy 43 6 32 undefined 66 66 N 3 6 29.88 1012 10 16 N/A
9:35 pm 21:35 Partly Cloudy 45 7 32 undefined 61 61 N 3 6 29.88 1012 10 16 N/A
9:55 pm 21:55 Clear 45 7 30 -1 57 57 NW 18 30 29.88 1012 10 16 N/A
10:15 pm 22:15 Partly Cloudy 45 7 28 -2 53 53 NW 12 19 29.89 1012 10 16 N/A
10:35 pm 22:35 Cloudy 45 7 28 -2 53 53 NW 18 30 29.89 1012 10 16 N/A
10:55 pm 22:55 Cloudy 45 7 30 -1 57 57 NNW 17 28 29.89 1012 10 16 N/A
11:15 pm 23:15 Cloudy 43 6 30 -1 61 61 NW 13 20 29.90 1013 10 16 N/A
11:35 pm 23:35 Cloudy 43 6 30 -1 61 61 NW 22 35 29.90 1013 10 16 N/A
11:55 pm 23:55 Cloudy 43 6 23 -5 46 46 NW 17 28 29.91 1013 10 16 N/A

Powered by AerisWeather